Location: Atherton
(17.2661°S, 145.4859°E)
Time: 23:28:01
(UTC+10:00)

Vanguard 1 - Pass Details

Date: 03 July 2025
Orbit: 649 x 3822 km, 34.2° (Epoch: 17 July)

Event Time Altitude Azimuth Distance (km) Brightness Sun altitude
Rises 21:19:09 0° 245° (WSW) 6,767 14.8 -46.8°
Reaches altitude 10° 21:25:03 10° 236° (WSW) 5,192 14.0 -48.1°
Enters shadow 21:32:20 26° 213° (SSW) 3,287 12.7 -49.8°
Maximum altitude 21:36:43 33° 177° (S) 2,501 - -50.8°
Drops below altitude 10° 21:43:37 10° 114° (ESE) 3,055 - -52.4°
Sets 21:46:07 0° 103° (ESE) 3,729 - -53.0°
